Weather History for Columbia, MO

Change the Weather History Date:

Thursday, March 21, 2013

  Actual Average Record
Temperature  
Mean Temperature 29 °F 46 °F  
Max Temperature 40 °F 57 °F 92 °F (1907)
Min Temperature 18 °F 36 °F 15 °F (1960)
Degree Days  
Heating Degree Days 36 19  
Month to date heating degree days 573 467  
Since 1 July heating degree days 4156 4413  
Cooling Degree Days 0 0  
Month to date cooling degree days 0 0  
Year to date cooling degree days 1 0  
Moisture  
Dew Point 14 °F    
Average Humidity 59    
Maximum Humidity 85    
Minimum Humidity 33    
Precipitation  
Precipitation 0.00 in 0.09 in 0.75 in (1948)
Month to date precipitation 1.94 1.86  
Year to date precipitation 8.18 6.03  
Snow  
Snow 0.00 in 0.00 in 2.70 in (1955)
Month to date snowfall 0.3 1.4  
Since 1 July snowfall 25.0 17.5  
Snow Depth 0.00 in    
Sea Level Pressure  
Sea Level Pressure 30.05 in    
Wind  
Wind Speed 4 mph (ESE)    
Max Wind Speed 15 mph    
Max Gust Speed 17 mph    
Visibility 10 miles    
Events      
T = Trace of Precipitation, MM = Missing Value Source: NWS Daily Summary

Daily Weather History Graph

Daily Weather History Graph

Search for Another Location

Airport:

Trip Planner

Search our weather history database for the weather conditions in past years. The results will help you decide how hot, cold, wet, or windy it might be!

Date:

Astronomy

Mar. 21, 2013 Rise Set
Actual Time 7:10 AM CDT 7:22 PM CDT
Civil Twilight 6:43 AM CDT 7:48 PM CDT
Nautical Twilight 6:12 AM CDT 8:19 PM CDT
Astronomical Twilight 5:41 AM CDT 8:51 PM CDT
Moon 1:55 PM CDT (3/21) 3:29 AM CDT (3/21)
Length of Visible Light 13h 04m
Length of Day
12h 11m
Waxing Gibbous, 69% of the Moon is Illuminated
Mar 21
Waxing Gibbous
Mar 27
Full
Apr 2
Last Quarter
Apr 10
New
Apr 18
First Quarter

Hourly Weather History & Observations

Time (CDT) Temp. Windchill Dew Point Humidity Pressure Visibility Wind Dir Wind Speed Gust Speed Precip Events Conditions
12:54 AM 23.0 °F 17.0 °F 10.4 °F 59% 30.12 in 10.0 mi WNW 4.6 mph - N/A   Clear
1:54 AM 24.1 °F - 9.0 °F 53% 30.14 in 10.0 mi Calm Calm - N/A   Clear
2:54 AM 21.9 °F 13.4 °F 10.9 °F 63% 30.14 in 10.0 mi NNE 6.9 mph - N/A   Clear
3:54 AM 21.9 °F 17.2 °F 12.0 °F 66% 30.13 in 10.0 mi NNE 3.5 mph - N/A   Clear
4:54 AM 21.0 °F 13.4 °F 12.0 °F 68% 30.11 in 10.0 mi NE 5.8 mph - N/A   Clear
5:54 AM 19.9 °F - 10.9 °F 68% 30.12 in 10.0 mi Calm Calm - N/A   Clear
6:54 AM 19.9 °F 12.1 °F 12.0 °F 71% 30.12 in 10.0 mi NE 5.8 mph - N/A   Clear
7:54 AM 21.9 °F 15.7 °F 14.0 °F 72% 30.12 in 10.0 mi East 4.6 mph - N/A   Clear
8:54 AM 23.0 °F - 12.9 °F 65% 30.14 in 10.0 mi Calm Calm - N/A   Partly Cloudy
10:54 AM 28.0 °F - 10.9 °F 49% 30.12 in 10.0 mi Calm Calm - N/A   Partly Cloudy
11:54 AM 30.9 °F 27.5 °F 10.9 °F 43% 30.09 in 10.0 mi Variable 3.5 mph - N/A   Mostly Cloudy
12:54 PM 34.0 °F 28.8 °F 10.9 °F 38% 30.06 in 10.0 mi ENE 5.8 mph - N/A   Scattered Clouds
1:42 PM 35.1 °F 31.0 °F 9.0 °F 34% 30.00 in 10.0 mi SSE 4.6 mph - N/A   Partly Cloudy
1:54 PM 37.9 °F 32.7 °F 12.0 °F 35% 30.02 in 10.0 mi SE 6.9 mph - N/A   Mostly Cloudy
3:54 PM 39.0 °F 34.0 °F 12.0 °F 33% 29.97 in 10.0 mi SSE 6.9 mph - N/A   Overcast
4:54 PM 39.9 °F 34.5 °F 12.9 °F 33% 29.97 in 10.0 mi South 8.1 mph - N/A   Overcast
5:54 PM 37.9 °F 33.5 °F 12.0 °F 35% 29.97 in 10.0 mi ESE 5.8 mph - N/A   Overcast
6:54 PM 37.9 °F 34.4 °F 15.1 °F 39% 29.96 in 10.0 mi South 4.6 mph - N/A   Overcast
7:54 PM 36.0 °F 29.6 °F 17.1 °F 46% 29.98 in 10.0 mi SSW 8.1 mph - N/A   Overcast
8:54 PM 30.9 °F 24.3 °F 26.1 °F 82% 30.00 in 10.0 mi SSW 6.9 mph - N/A   Overcast
9:54 PM 30.9 °F - 26.1 °F 82% 30.00 in 10.0 mi Calm Calm - N/A   Overcast
10:54 PM 32.0 °F - 27.0 °F 82% 30.00 in 10.0 mi Calm Calm - N/A   Overcast
11:54 PM 32.0 °F 26.4 °F 26.6 °F 80% 29.98 in 10.0 mi NE 5.8 mph - N/A   Overcast